Tracking 17636 objects as of 30-April-2016
HD Live streaming from Space Station
objects crossing your sky now

UNISAT 3

Track UNISAT 3 now!
10-day predictions
UNISAT 3 is classified as:


NORAD ID: 28373
Int'l Code: 2004-025H
Perigee: 748.2 km
Apogee: 748.2 km
Inclination: 98.3 °
Period: 99.6 minutes
Semi major axis: 7119 km
RCS: 0.116 m2 (medium)
Launch date: June 29, 2004
Source: Italy (IT)
Launch site: TYURATAM MISSILE AND SPACE COMPLEX (TTMTR)

Unisat 3 is an Italian, scientific microsatellite (12 kg) designed to test solar cells in the space environment.
Your satellite tracking list
Your tracking list is empty





NASA's NSSDC Master Catalog

Two Line Element Set (TLE):
1 28373U 04025H   16120.43506790  .00000172  00000-0  60056-4 0  9999
2 28373  98.2919  64.9661 0069836  27.2249 333.2576 14.45283252624134
Source of the keplerian elements: AFSPC

N2YO: 358